THAICOM 4

Last updated on Nov. 13, 2019, 4:20 a.m. UTC

1 28786U 05028A   19316.28237073 -.00000349  00000-0  00000+0 0  9994
2 28786   0.0028 328.9991 0002671 260.0670  43.2746  1.00273419 52168
UTC
Height (km)
Latitude
Longitude
Inclination
Orbital Period
UTC large
Height (km)
Speed (km/s)
/
Latitude / Longitude
Inclination (degrees)
Orbital Period (minutes)
Azimuth
Elevation
Range (km)
Doppler Factor
iOS Compass Heading
iOS Angle

Next 30 passes for location: Hong Kong

Rise time Rise Azimuth (degrees) Set time Set Azimuth (degrees) Duration Max altitude (degrees)

No matching passes for this satellites